Jenks, OK

8:28 PM CDT on September 28, 2016 (GMT -0500)
Jones Jr.

Weather History for KRVS - November, 2013

Change the Weather History Date:

Saturday, November 23, 2013

  Actual Average (KTUL) Record (KTUL)
Temperature  
Mean Temperature 34 °F 47 °F  
Max Temperature 39 °F 57 °F 78 °F (1966)
Min Temperature 28 °F 36 °F 17 °F (1970)
Degree Days  
Heating Degree Days 32 18  
Month to date heating degree days 309  
Since 1 July heating degree days 495  
Moisture  
Dew Point 21 °F    
Average Humidity 60    
Maximum Humidity 82    
Minimum Humidity 35    
Precipitation  
Precipitation 0.00 in 0.08 in 0.80 in (1931)
Month to date precipitation 2.24  
Year to date precipitation 37.91  
Sea Level Pressure  
Sea Level Pressure 30.66 in    
Wind  
Wind Speed 10 mph (NNE)    
Max Wind Speed 17 mph    
Max Gust Speed 28 mph    
Visibility 10 miles    
Events      
T = Trace of Precipitation, MM = Missing Value Source: NWS Daily Summary

Daily Weather History Graph

Daily Weather History Graph

Search for Another Location

Airport or City:

Trip Planner

Search our weather history database for the weather conditions in past years. The results will help you decide how hot, cold, wet, or windy it might be!

Date:

Astronomy

Nov. 23, 2013 Rise Set
Actual Time 7:08 AM CST 5:11 PM CST
Civil Twilight 6:40 AM CST 5:39 PM CST
Nautical Twilight 6:09 AM CST 6:10 PM CST
Astronomical Twilight 5:38 AM CST 6:41 PM CST
Moon 10:37 PM CST (11/23) 11:29 AM CST (11/23)
Length of Visible Light 10h 58m
Length of Day
10h 03m
Waning Gibbous, 69% of the Moon is Illuminated
Nov 23
Waning Gibbous
Nov 25
Last Quarter
Dec 2
New
Dec 9
First Quarter
Dec 17
Full

Hourly Weather History & Observations

Time (CST) Temp. Windchill Dew Point Humidity Pressure Visibility Wind Dir Wind Speed Gust Speed Precip Events Conditions
12:09 AM 33.8 °F 26.4 °F 26.6 °F 75% 30.57 in 10.0 mi North 9.2 mph - N/A   Overcast
12:53 AM 33.1 °F 26.1 °F 27.0 °F 78% 30.61 in 10.0 mi North 8.1 mph 17.3 mph N/A   Overcast
1:53 AM 33.1 °F 24.9 °F 27.0 °F 78% 30.60 in 10.0 mi North 10.4 mph 17.3 mph 0.00 in   Overcast
2:53 AM 32.0 °F 25.6 °F 27.0 °F 82% 30.60 in 10.0 mi North 6.9 mph - 0.00 in   Overcast
3:53 AM 33.1 °F 26.1 °F 27.0 °F 78% 30.60 in 10.0 mi North 8.1 mph - N/A   Overcast
4:11 AM 33.8 °F 26.4 °F 26.6 °F 75% 30.58 in 10.0 mi North 9.2 mph - N/A   Overcast
4:18 AM 33.8 °F 26.4 °F 26.6 °F 75% 30.59 in 10.0 mi North 9.2 mph - N/A   Overcast
4:53 AM 33.1 °F 28.7 °F 27.0 °F 78% 30.62 in 10.0 mi Variable 4.6 mph - N/A   Overcast
5:53 AM 33.1 °F 25.5 °F 26.1 °F 75% 30.63 in 10.0 mi North 9.2 mph 18.4 mph N/A   Overcast
6:53 AM 33.1 °F 23.9 °F 25.0 °F 72% 30.65 in 10.0 mi North 12.7 mph 18.4 mph N/A   Overcast
7:53 AM 34.0 °F 25.5 °F 24.1 °F 67% 30.67 in 10.0 mi North 11.5 mph 17.3 mph N/A   Overcast
8:53 AM 35.1 °F 27.9 °F 19.9 °F 54% 30.68 in 10.0 mi NNE 9.2 mph - N/A   Overcast
9:53 AM 37.0 °F 30.4 °F 18.0 °F 46% 30.70 in 10.0 mi North 9.2 mph - N/A   Overcast
10:53 AM 37.0 °F 29.8 °F 15.1 °F 41% 30.72 in 10.0 mi NNE 10.4 mph 17.3 mph N/A   Overcast
11:53 AM 37.9 °F 30.0 °F 12.9 °F 36% 30.69 in 10.0 mi NNE 12.7 mph - N/A   Overcast
12:53 PM 39.9 °F 31.1 °F 14.0 °F 35% 30.67 in 10.0 mi NE 17.3 mph 23.0 mph N/A   Overcast
1:53 PM 39.0 °F 31.0 °F 19.9 °F 46% 30.67 in 10.0 mi NNE 13.8 mph - N/A   Overcast
2:53 PM 39.9 °F 33.9 °F 21.0 °F 47% 30.67 in 10.0 mi North 9.2 mph 20.7 mph N/A   Clear
3:53 PM 39.0 °F 31.4 °F 21.0 °F 49% 30.67 in 10.0 mi NNE 12.7 mph 18.4 mph N/A   Clear
4:53 PM 39.0 °F 32.8 °F 21.9 °F 50% 30.69 in 10.0 mi North 9.2 mph 18.4 mph N/A   Clear
5:53 PM 37.0 °F 31.0 °F 21.9 °F 54% 30.70 in 10.0 mi North 8.1 mph 16.1 mph N/A   Clear
6:53 PM 35.1 °F 25.2 °F 19.9 °F 54% 30.71 in 10.0 mi NNE 16.1 mph 27.6 mph N/A   Clear
7:53 PM 32.0 °F 23.0 °F 18.0 °F 56% 30.72 in 10.0 mi North 11.5 mph 18.4 mph N/A   Clear
8:53 PM 30.9 °F 22.8 °F 16.0 °F 54% 30.73 in 10.0 mi NNE 9.2 mph - N/A   Clear
9:53 PM 28.9 °F 20.4 °F 15.1 °F 56% 30.74 in 10.0 mi NNE 9.2 mph - N/A   Clear
10:53 PM 28.9 °F 21.1 °F 14.0 °F 54% 30.72 in 10.0 mi NNE 8.1 mph - N/A   Clear
11:53 PM 28.0 °F 18.1 °F 10.9 °F 49% 30.72 in 10.0 mi NNE 11.5 mph - N/A   Clear